[Date Prev][Date Next][Thread Prev][Thread Next] - [Date Index][Thread Index][Author Index]
2 Line ISS Keps 3-3
- Subject: [sarex] 2 Line ISS Keps 3-3
- From: "Dave Larsen PhD" <doc@xxxxxxxxxxx>
- Date: Thu, 2 Mar 2006 19:33:45 -0800
ISS
1 25544U 98067A 06062.02858796 .00014457 00000-0 10347-3 0 4544
2 25544 051.6439 013.5666 0008141 319.8026 050.9752 15.73980138416431
----
Via the sarex mailing list at AMSAT.ORG courtesy of AMSAT-NA.
To unsubscribe, send "unsubscribe sarex" to Majordomo@amsat.org
AMSAT Home